Change the Weather History Date:

Sunday, October 28, 2012

  Actual Average (KCRP) Record (KCRP)
Temperature  
Mean Temperature 60 °F 72 °F  
Max Temperature 66 °F 82 °F 92 °F (1921)
Min Temperature 55 °F 62 °F 41 °F (2008)
Degree Days  
Heating Degree Days 4 1  
Month to date heating degree days 5  
Since 1 July heating degree days 5  
Cooling Degree Days 0 8  
Month to date cooling degree days 289  
Year to date cooling degree days 3332  
Growing Degree Days 10 (Base 50)    
Moisture  
Dew Point 41 °F    
Average Humidity 50    
Maximum Humidity 67    
Minimum Humidity 32    
Precipitation  
Precipitation 0.00 in 0.11 in 2.61 in (2002)
Month to date precipitation 3.34  
Year to date precipitation 27.66  
Snow  
Snow 0.00 in - - ()
Month to date snowfall  
Since 1 July snowfall  
Since 1 September snowfall  
Snow Depth -    
Sea Level Pressure  
Sea Level Pressure 30.21 in    
Wind  
Wind Speed 11 mph (NNE)    
Max Wind Speed 15 mph    
Max Gust Speed 22 mph    
Visibility 10 miles    
Events      
T = Trace of Precipitation, MM = Missing Value Source: NWS Daily Summary

Daily Weather History Graph

Daily Weather History Graph

Search for Another Location

Airport or City:

Trip Planner

Search our weather history database for the weather conditions in past years. The results will help you decide how hot, cold, wet, or windy it might be!

Date:

Astronomy

Oct. 28, 2012 Rise Set
Actual Time 7:36 AM CDT 6:46 PM CDT
Civil Twilight 7:12 AM CDT 7:10 PM CDT
Nautical Twilight 6:45 AM CDT 7:38 PM CDT
Astronomical Twilight 6:17 AM CDT 8:05 PM CDT
Moon 6:04 PM CDT (10/28) 6:33 AM CDT (10/28)
Length of Visible Light 11h 57m
Length of Day
11h 09m
Waxing Gibbous, 99% of the Moon is Illuminated
Oct 28
Waxing Gibbous
Oct 29
Full
Nov 6
Last Quarter
Nov 13
New
Nov 20
First Quarter

Hourly Weather History & Observations

Time (CDT) Temp. Dew Point Humidity Pressure Visibility Wind Dir Wind Speed Gust Speed Precip Events Conditions
12:15 AM 60.8 °F 41.0 °F 48% 30.19 in 10.0 mi NNE 15.0 mph 19.6 mph N/A   Overcast
12:35 AM 60.8 °F 41.0 °F 48% 30.19 in 10.0 mi NNE 13.8 mph 21.9 mph N/A   Overcast
12:55 AM 59.0 °F 39.2 °F 48% 30.19 in 10.0 mi NNE 12.7 mph - N/A   Overcast
1:15 AM 59.0 °F 39.2 °F 48% 30.19 in 10.0 mi NNE 13.8 mph - N/A   Overcast
1:35 AM 59.0 °F 41.0 °F 51% 30.19 in 10.0 mi NNE 13.8 mph 19.6 mph N/A   Overcast
1:55 AM 59.0 °F 39.2 °F 48% 30.19 in 10.0 mi NNE 12.7 mph - N/A   Overcast
2:15 AM 59.0 °F 41.0 °F 51% 30.19 in 10.0 mi NNE 12.7 mph - N/A   Overcast
2:35 AM 59.0 °F 41.0 °F 51% 30.18 in 10.0 mi NNE 13.8 mph - N/A   Overcast
2:55 AM 59.0 °F 41.0 °F 51% 30.18 in 10.0 mi NNE 13.8 mph - N/A   Overcast
3:15 AM 59.0 °F 41.0 °F 51% 30.18 in 10.0 mi NNE 13.8 mph 19.6 mph N/A   Overcast
3:35 AM 59.0 °F 41.0 °F 51% 30.18 in 10.0 mi NNE 13.8 mph - N/A   Overcast
3:55 AM 59.0 °F 41.0 °F 51% 30.18 in 10.0 mi NNE 12.7 mph - N/A   Overcast
4:15 AM 59.0 °F 41.0 °F 51% 30.18 in 10.0 mi NNE 11.5 mph - N/A   Overcast
4:35 AM 59.0 °F 41.0 °F 51% 30.18 in 10.0 mi NNE 15.0 mph - N/A   Overcast
4:55 AM 59.0 °F 41.0 °F 51% 30.18 in 10.0 mi NNE 12.7 mph 17.3 mph N/A   Overcast
5:15 AM 57.2 °F 42.8 °F 59% 30.19 in 10.0 mi NNE 9.2 mph - N/A   Overcast
5:35 AM 57.2 °F 42.8 °F 59% 30.19 in 10.0 mi NNE 10.4 mph - N/A   Overcast
5:55 AM 57.2 °F 41.0 °F 55% 30.20 in 10.0 mi NNE 12.7 mph 18.4 mph N/A   Overcast
6:15 AM 55.4 °F 41.0 °F 58% 30.20 in 10.0 mi NNE 13.8 mph 18.4 mph N/A   Overcast
6:35 AM 55.4 °F 41.0 °F 58% 30.21 in 10.0 mi NNE 15.0 mph 18.4 mph N/A   Overcast
6:55 AM 55.4 °F 41.0 °F 58% 30.21 in 10.0 mi NNE 13.8 mph 18.4 mph N/A   Overcast
7:15 AM 55.4 °F 41.0 °F 58% 30.21 in 10.0 mi NNE 15.0 mph 18.4 mph N/A   Overcast
7:35 AM 55.4 °F 41.0 °F 58% 30.22 in 10.0 mi NNE 15.0 mph 20.7 mph N/A   Overcast
7:55 AM 55.4 °F 41.0 °F 58% 30.22 in 10.0 mi NNE 12.7 mph 18.4 mph N/A   Overcast
8:15 AM 55.4 °F 41.0 °F 58% 30.23 in 10.0 mi NNE 11.5 mph 18.4 mph N/A   Overcast
8:35 AM 55.4 °F 41.0 °F 58% 30.24 in 10.0 mi NNE 12.7 mph - N/A   Overcast
8:55 AM 57.2 °F 41.0 °F 55% 30.25 in 10.0 mi NNE 11.5 mph - N/A   Overcast
9:15 AM 57.2 °F 41.0 °F 55% 30.26 in 10.0 mi NNE 12.7 mph - N/A   Overcast
9:35 AM 57.2 °F 41.0 °F 55% 30.26 in 10.0 mi NNE 13.8 mph - N/A   Overcast
9:55 AM 57.2 °F 39.2 °F 51% 30.26 in 10.0 mi NNE 10.4 mph - N/A   Overcast
10:15 AM 57.2 °F 41.0 °F 55% 30.26 in 10.0 mi NNE 11.5 mph - N/A   Overcast
10:35 AM 57.2 °F 39.2 °F 51% 30.26 in 10.0 mi NNE 13.8 mph - N/A   Overcast
10:55 AM 57.2 °F 41.0 °F 55% 30.27 in 10.0 mi NNE 9.2 mph - N/A   Overcast
11:15 AM 57.2 °F 41.0 °F 55% 30.27 in 10.0 mi NNE 12.7 mph - N/A   Overcast
11:35 AM 57.2 °F 41.0 °F 55% 30.26 in 10.0 mi North 12.7 mph - N/A   Overcast
11:55 AM 59.0 °F 41.0 °F 51% 30.26 in 10.0 mi North 10.4 mph - N/A   Overcast
12:15 PM 59.0 °F 39.2 °F 48% 30.26 in 10.0 mi NNE 11.5 mph - N/A   Overcast
12:35 PM 60.8 °F 41.0 °F 48% 30.25 in 10.0 mi North 10.4 mph 16.1 mph N/A   Overcast
12:55 PM 60.8 °F 41.0 °F 48% 30.25 in 10.0 mi North 12.7 mph - N/A   Overcast
1:15 PM 60.8 °F 39.2 °F 45% 30.24 in 10.0 mi North 11.5 mph - N/A   Overcast
1:35 PM 60.8 °F 41.0 °F 48% 30.23 in 10.0 mi North 10.4 mph - N/A   Overcast
1:55 PM 60.8 °F 37.4 °F 42% 30.22 in 10.0 mi NNE 10.4 mph 19.6 mph N/A   Overcast
2:15 PM 62.6 °F 37.4 °F 39% 30.21 in 10.0 mi North 9.2 mph - N/A   Overcast
2:35 PM 62.6 °F 37.4 °F 39% 30.20 in 10.0 mi NNE 12.7 mph - N/A   Overcast
2:55 PM 64.4 °F 35.6 °F 34% 30.19 in 10.0 mi NNE 11.5 mph - N/A   Scattered Clouds
3:15 PM 64.4 °F 33.8 °F 32% 30.19 in 10.0 mi NNE 9.2 mph - N/A   Clear
3:35 PM 64.4 °F 37.4 °F 37% 30.18 in 10.0 mi NE 8.1 mph 16.1 mph N/A   Clear
3:55 PM 64.4 °F 33.8 °F 32% 30.18 in 10.0 mi NNE 11.5 mph - N/A   Clear
4:15 PM 66.2 °F 35.6 °F 32% 30.17 in 10.0 mi NE 8.1 mph - N/A   Clear
4:35 PM 64.4 °F 37.4 °F 37% 30.18 in 10.0 mi East 8.1 mph - N/A   Clear
4:55 PM 64.4 °F 37.4 °F 37% 30.18 in 10.0 mi ENE 6.9 mph - N/A   Clear
5:15 PM 64.4 °F 37.4 °F 37% 30.18 in 10.0 mi East 6.9 mph - N/A   Scattered Clouds
5:35 PM 64.4 °F 37.4 °F 37% 30.18 in 10.0 mi East 4.6 mph - N/A   Clear
5:55 PM 64.4 °F 37.4 °F 37% 30.18 in 10.0 mi ESE 4.6 mph - N/A   Scattered Clouds
6:15 PM 62.6 °F 37.4 °F 39% 30.18 in 10.0 mi ENE 4.6 mph - N/A   Scattered Clouds
6:35 PM 62.6 °F 39.2 °F 42% 30.18 in 10.0 mi Calm Calm - N/A   Clear
6:55 PM 62.6 °F 39.2 °F 42% 30.18 in 10.0 mi East 3.5 mph - N/A   Scattered Clouds
7:15 PM 60.8 °F 39.2 °F 45% 30.18 in 10.0 mi East 3.5 mph - N/A   Clear
7:35 PM 62.6 °F 39.2 °F 42% 30.18 in 10.0 mi Calm Calm - N/A   Clear
8:15 PM 60.8 °F 42.8 °F 52% 30.20 in 10.0 mi Calm Calm - N/A   Clear
8:35 PM 60.8 °F 44.6 °F 55% 30.20 in 10.0 mi Calm Calm - N/A   Clear
8:55 PM 60.8 °F 46.4 °F 59% 30.21 in 10.0 mi Calm Calm - N/A   Clear
9:15 PM 60.8 °F 46.4 °F 59% 30.21 in 10.0 mi Calm Calm - N/A   Clear
9:35 PM 60.8 °F 48.2 °F 63% 30.21 in 10.0 mi Calm Calm - N/A   Clear
9:55 PM 60.8 °F 48.2 °F 63% 30.22 in 10.0 mi Calm Calm - N/A   Clear
10:35 PM 59.0 °F 48.2 °F 67% 30.22 in 10.0 mi Calm Calm - N/A   Clear
10:55 PM 59.0 °F 44.6 °F 59% 30.22 in 10.0 mi North 3.5 mph - N/A   Mostly Cloudy
11:15 PM 59.0 °F 44.6 °F 59% 30.22 in 10.0 mi North 4.6 mph - N/A   Scattered Clouds
11:35 PM 57.2 °F 46.4 °F 67% 30.22 in 10.0 mi North 5.8 mph - N/A   Clear
11:55 PM 57.2 °F 46.4 °F 67% 30.22 in 10.0 mi North 6.9 mph - N/A   Clear